Regional Weather Roundup
Issued by NWS Jackson, KY

Home | Current Version | Previous Version | Graphics & Text | Print | Product List | Glossary On
Versions: 1 2 3 4 5 6 7 8 9 10 11 12 13 14 15 16 17 18 19 20 21 22 23 24 25 26 27 28 29 30 31 32 33 34 35 36 37 38 39 40 41 42 43 44 45 46 47 48 49 50
000
ASUS43 KJKL 070710
RWRJKL

EAST KENTUCKY HOURLY WEATHER ROUNDUP
NATIONAL WEATHER SERVICE JACKSON KY
300 AM EDT TUE JUL 07 2015

NOTE: "FAIR" INDICATES FEW OR NO CLOUDS BELOW 12,000 FEET WITH
NO SIGNIFICANT WEATHER AND/OR OBSTRUCTIONS TO VISIBILITY.

* THESE REPORTS ARE NOT UNDER NWS QUALITY CONTROL AND MAY NOT
  REPORT WEATHER SUCH AS PRECIPITATION AND FOG.

KYZ079-080-083-085-087-088-110-112-115-119-120-070800
...EASTERN KENTUCKY...

CITY           SKY/WX    TMP DP  RH WIND       PRES   REMARKS
JACKSON        CLEAR     69  66  90 CALM      30.09S FOG
LONDON         CLEAR     71  65  81 SW3       30.10S
SOMERSET*      PTCLDY    68  68 100 CALM      30.09S
MONTICELLO*    CLEAR     68  68 100 CALM      30.10F FOG
MIDDLESBORO*   PTCLDY    66  66 100 CALM      30.12F FOG
HARLAN APT*      N/A     68  68 100 CALM      30.13S VSB 1/4
HAZARD APT*    SUNNY     68  68 100 CALM      30.10S
BLACK MTN*       N/A     64  64 100 S6          N/A
PIKEVILLE APT* CLEAR     68  66  94 SE3       30.10F
BIG SANDY*     SUNNY     69  68  94 S5        30.08S
MOREHEAD APT*  SUNNY     68  66  94 CALM      30.08R FOG
$$

KYZ035-036-041-042-044-050-067-078-099-070800
...CENTRAL KENTUCKY...

CITY           SKY/WX    TMP DP  RH WIND       PRES   REMARKS
MT STERLING*   CLEAR     70  70 100 SW5       30.07S
FLEMING/MASON* CLEAR     70  68  94 S6        30.05R FOG
DANVILLE*      CLEAR     70  68  94 SW8       30.07S
RICHMOND*      CLEAR     72  68  88 S7        30.06S
LEXINGTON      PTCLDY    71  68  90 S7        30.04S
FRANKFORT      PTCLDY    74  68  81 SW7       30.01F
$$

KYZ091>093-OHZ055-061-077-WVZ005-015-034-035-042-070800
...SOUTHERN OHIO/WEST VIRGINIA...

CITY           SKY/WX    TMP DP  RH WIND       PRES   REMARKS
COVINGTON      PTCLDY    72  69  90 S8        30.00S
COLUMBUS       CLOUDY    70  63  78 S3        29.99S
DAYTON         PTCLDY    74  69  85 S9        29.98F
WILMINGTON     PTCLDY    70  66  87 S7        30.00S FOG
HUNTINGTON     CLEAR     68  67  96 S5        30.04F FOG
CHARLESTON     PTCLDY    68  65  90 S5        30.06F
PINEVILLE*     FOG       65  65 100 MISG      30.18F VSB 1/2
BECKLEY        CLEAR     64  61  90 SW3       30.16F
BLUEFIELD      PTCLDY    65  60  84 W5        30.19F
$$

VAZ002-007-008-TNZ017-027-036-066-071-070800
...SOUTHWEST VIRGINIA/EAST TENNESSEE...

CITY           SKY/WX    TMP DP  RH WIND       PRES   REMARKS
WISE*          CLEAR     64  64 100 S3        30.20S FOG
JONESVILLE*      N/A    N/A N/A N/A MISG        N/A
ABINGDON*      PTCLDY    65  65 100 CALM      30.17F FOG
BRISTOL        PTCLDY    65  64  97 CALM      30.14F FOG
KNOXVILLE      CLEAR     72  67  84 SW6       30.10F
OAK RIDGE      CLEAR     72  69  90 CALM      30.12S
CROSSVILLE     CLEAR     70  66  87 CALM      30.15S
NASHVILLE      PTCLDY    76  73  91 VRB5      30.07S
$$

...KEY TO REMARKS...
VSB - VISIBILITY IN MILES
WCI - WIND CHILL INDEX
HX  - HEAT INDEX

$$



USA.gov is the U.S. government's official web portal to all federal, state and local government web resources and services.